Home   Weather   Kenora   Past weeks

Flag for Canada Past Weather in Kenora, Ontario, Canada — Yesterday and Last 2 Weeks

Now
39 °F

Passing clouds.


Feels Like: 37 °F
Forecast: 24 / 50 °F
Wind: 3 mph from North

Location: Kenora

Current Time: Apr 29, 2017 at 1:05:57 am

Latest Report: Apr 29, 2017 at 12:00 am


Visibility: 15 mi

Pressure: 30.21 "Hg

Humidity: 30%

Dew Point: 10 °F

Location of KenoraLocation

Past Weather in Kenora — Graph

°F

Kenora Temperature Yesterday

Maximum temperature yesterday: 45 °F (at 4:00 pm)
Minimum temperature yesterday: 27 °F (at 12:00 am)
Average temperature yesterday: 35 °F

High & Low Weather Summary for the Past Weeks

 TemperatureHumidityPressure
High63 °F (Apr 14, 4:00 pm)100% (Apr 15, 3:47 am)30.34 "Hg (Apr 15, 3:47 am)
Low21 °F (Apr 23, 6:00 am)27% (Apr 23, 5:00 pm)29.67 "Hg (Apr 27, 4:00 pm)
Average37 °F72%30.01 "Hg
* Reported Apr 14 12:00 am — Apr 29 12:00 am, Kenora, Weather by CustomWeather, © 2017

Note: Actual official high and low records may vary slightly from our data, if they occured in-between our weather recording intervals... More about our weather records

Advertising

Kenora Weather History for the Previous 24 Hours

Scroll right to see more
 ConditionsComfort  
Time TempWeatherWind HumidityBarometerVisibility
12:00 am
Sat, Apr 29
39 °FPassing clouds.3 mph30%30.21 "Hg15 mi
11:00 pm
Fri, Apr 28
39 °FPassing clouds.5 mph30%30.18 "Hg15 mi
10:00 pm41 °FPassing clouds.6 mph31%30.16 "Hg15 mi
9:00 pm41 °FPassing clouds.3 mph33%30.12 "Hg15 mi
8:00 pm43 °FPassing clouds.6 mph31%30.09 "Hg15 mi
7:00 pm45 °FPartly sunny.9 mph27%30.07 "Hg15 mi
6:00 pm45 °FPartly sunny.10 mph27%30.05 "Hg15 mi
5:00 pm45 °FPartly sunny.10 mph27%30.03 "Hg15 mi
4:00 pm45 °FBroken clouds.12 mph31%30.01 "Hg15 mi
3:00 pm43 °FPartly sunny.13 mph36%30.00 "Hg15 mi
2:00 pm41 °FPartly sunny.10 mph42%29.98 "Hg15 mi
1:00 pm39 °FBroken clouds.12 mph48%29.96 "Hg15 mi
12:00 pm37 °FBroken clouds.9 mph56%29.94 "Hg15 mi
11:00 am34 °FMostly cloudy.10 mph65%29.93 "Hg15 mi
10:00 am32 °FMostly cloudy.9 mph60%29.90 "Hg15 mi
9:00 am30 °FOvercast.13 mph59%29.88 "Hg15 mi
8:00 am28 °FOvercast.12 mph69%29.86 "Hg15 mi
7:00 am28 °FMostly cloudy.10 mph80%29.84 "Hg15 mi
6:00 am27 °FMostly cloudy.10 mph86%29.81 "Hg15 mi
5:00 am27 °FMostly cloudy.9 mph86%29.80 "Hg8 mi
4:00 am27 °FLight snow. Ice fog.14 mph93%29.80 "Hg1 mi
3:00 am27 °FLight snow. Ice fog.10 mph93%29.79 "Hg1 mi
2:00 am27 °FLight snow. Ice fog.12 mph93%29.78 "Hg1 mi
1:00 am27 °FLight snow. Ice fog.10 mph93%29.78 "Hg1 mi
Weather by CustomWeather, © 2017

See weather overviewHow to use our weather pages